RH
43 35 32 37 38 37 39 39 40 40 40 40 39 39 39 40 40 42 47 49 45 42 46 60 78 82 77 70 66 65 67 71 68 60 58 54 46 44 43 39 37 35 36 34 33 35 33 34 33 37 40 41
39 33 34 37 37 37 39 40 41 40 40 39 39 39 38 38 37 36 34 34 33 31 29 32 50 67 66 56 48 46 48 53 54 45 41 43 40 38 36 35 36 33 34 32 30 31 31 38 38 33 37 42
37 34 37 38 38 39 40 41 42 42 41 40 41 40 39 38 36 35 34 33 32 31 30 28 31 42 47 42 38 38 39 42 43 38 36 36 33 32 29 30 32 27 30 30 22 25 32 39 36 28 36 42
37 36 39 39 40 40 41 43 42 42 42 41 41 39 40 42 39 35 34 32 31 30 30 31 31 34 37 37 38 38 38 36 33 30 28 26 23 22 18 20 22 17 25 26 19 26 31 29 24 22 34 41
37 37 39 40 41 41 43 42 43 42 40 41 40 39 42 45 41 34 33 31 29 31 30 33 35 36 36 35 35 31 28 24 21 23 19 15 15 15 11 13 13 10 16 17 19 27 23 16 15 19 32 39
38 40 40 41 42 43 44 43 43 42 40 40 39 41 44 43 39 32 31 31 30 32 34 36 35 33 30 27 24 20 19 16 14 22 20 13 15 15 9 10 10 9 11 10 17 22 13 10 11 17 30 34
42 42 41 42 44 45 45 44 44 42 41 40 39 41 42 38 35 34 32 31 35 38 40 42 38 34 28 22 19 17 18 14 13 20 19 13 15 14 8 9 9 9 10 9 16 17 10 9 9 14 22 25
46 45 44 45 46 47 45 45 44 43 41 39 39 39 38 34 32 38 37 34 40 44 45 44 39 36 28 21 19 16 16 12 11 15 14 10 12 12 10 12 11 9 11 11 15 15 10 8 8 12 16 18
49 49 48 49 50 49 47 46 44 43 41 39 38 36 34 32 32 41 42 40 43 43 42 35 28 29 24 19 17 14 13 11 11 13 12 10 11 12 13 16 14 10 12 13 16 14 9 8 8 12 12 14
51 51 52 52 51 51 49 47 46 43 41 38 37 35 33 37 41 45 47 46 40 35 35 28 21 26 24 19 16 12 13 11 10 13 11 8 10 12 14 21 18 10 15 18 19 16 10 8 7 10 12 13
51 52 52 52 50 50 48 47 46 44 41 38 37 33 31 39 45 46 48 45 37 34 34 26 23 28 26 20 15 12 12 10 10 13 10 7 9 9 13 23 20 10 16 21 21 18 11 8 8 10 11 12
52 52 51 50 49 48 47 46 46 43 40 37 35 32 30 37 43 45 45 39 35 36 33 26 23 27 25 20 15 11 10 8 8 11 10 6 7 7 12 21 19 11 15 20 22 20 13 8 8 10 11 12
53 52 51 49 47 47 47 46 45 42 40 37 33 31 31 38 42 41 39 31 30 31 28 24 23 24 23 19 14 8 7 7 7 9 8 6 6 8 12 19 20 14 15 21 24 21 15 10 9 10 11 11
53 53 52 49 48 47 46 45 45 41 39 37 34 31 33 40 36 30 30 27 27 30 28 27 25 23 21 20 13 6 7 6 7 9 8 7 7 9 13 19 22 17 16 22 25 22 17 13 12 12 12 12
53 54 52 50 49 46 45 45 43 40 40 40 37 33 36 38 26 21 24 23 24 28 31 31 25 20 19 19 12 7 7 5 9 13 9 9 10 12 16 19 22 19 17 20 22 20 16 15 14 15 15 13
51 52 52 51 50 46 44 43 42 40 41 42 39 36 38 32 21 21 23 21 19 20 25 24 20 20 18 13 9 7 6 8 16 17 10 11 13 15 18 21 22 19 17 20 19 16 13 12 13 15 17 15
48 48 49 50 48 46 44 43 41 41 42 43 39 39 36 25 20 23 23 22 17 15 19 16 14 19 17 10 6 7 5 10 21 17 9 12 13 14 19 20 19 18 17 18 17 13 11 9 11 15 16 17
46 44 46 47 46 45 44 42 41 41 43 42 40 40 33 22 22 24 23 21 16 16 19 16 14 16 15 9 5 8 6 8 21 16 8 12 10 10 17 17 19 20 18 18 16 11 9 8 11 15 17 19
44 43 44 45 45 45 44 42 41 42 43 42 41 39 30 22 24 23 22 20 15 18 21 22 21 16 13 7 6 10 6 9 23 16 7 14 12 10 15 16 20 24 22 20 15 10 8 9 13 14 18 21
42 43 44 45 45 45 44 42 42 43 43 42 40 37 29 24 25 24 21 19 16 18 21 26 27 20 12 7 9 11 8 15 24 14 7 16 15 11 15 19 23 24 23 20 13 9 10 12 15 16 19 20
39 41 44 45 46 46 44 42 42 43 42 40 39 35 30 26 26 24 21 20 19 18 20 24 25 19 10 7 10 10 12 19 20 12 7 12 15 13 16 22 26 23 24 21 12 11 14 17 18 18 21 21
39 39 41 43 45 46 45 43 42 41 40 39 37 34 30 28 27 26 23 21 21 20 19 20 20 16 11 10 11 11 17 20 17 14 9 8 12 14 16 23 27 26 26 20 12 14 18 19 19 18 19 19
40 39 40 41 43 45 45 44 42 41 39 39 36 33 31 29 28 26 24 23 23 21 20 20 19 18 14 15 15 16 21 25 24 17 10 10 13 15 19 24 28 28 26 18 12 17 18 16 16 15 16 18
40 41 41 40 41 43 44 44 42 40 39 39 36 33 32 30 30 28 25 25 25 24 24 23 23 22 19 19 19 19 23 28 27 16 11 13 14 17 21 25 27 26 22 16 14 16 13 13 12 13 16 18
41 43 42 40 39 40 41 42 41 40 39 39 36 34 33 31 31 30 27 27 27 27 28 26 26 26 23 22 22 23 24 24 21 15 14 14 15 20 21 20 23 23 20 17 18 17 13 12 11 13 16 19
42 44 44 42 40 38 39 40 39 39 39 39 37 35 34 32 32 32 29 28 29 29 29 28 29 28 26 24 24 27 28 23 20 20 19 17 17 21 19 16 18 21 21 19 19 20 19 18 13 11 12 20
43 44 45 43 41 39 37 38 38 37 39 39 38 37 35 34 33 33 31 30 30 31 30 30 30 30 28 27 27 31 30 26 26 27 25 22 19 19 18 15 16 21 22 18 18 23 26 23 17 16 15 23
43 43 44 44 41 40 38 37 36 35 37 39 39 38 37 36 36 35 34 32 31 31 32 31 31 31 30 29 30 31 31 30 31 31 29 26 22 20 19 14 13 21 21 16 19 28 31 25 21 24 20 20
43 42 44 44 42 41 39 37 34 32 35 38 39 38 38 39 38 37 36 34 32 32 33 32 31 32 32 32 32 31 33 34 34 32 31 30 27 24 21 15 13 18 20 17 19 23 27 30 33 33 25 20
42 42 43 43 43 42 40 38 34 32 33 36 38 38 39 40 40 39 37 36 34 33 34 33 33 33 34 35 34 34 34 32 31 32 32 31 30 27 24 19 16 15 17 20 21 18 17 23 32 36 30 25
42 43 43 43 43 43 42 41 38 34 32 33 36 37 39 40 41 40 38 37 36 34 34 34 33 34 35 36 37 36 35 30 28 31 34 33 33 30 26 23 22 17 15 21 26 25 20 18 23 29 30 29
Wind_Speed
14 13 13 13 13 12 11 11 11 10 10 10 10 9 9 10 10 10 10 10 10 11 12 13 14 15 15 15 15 15 15 16 16 16 17 17 18 18 19 18 19 20 20 21 22 21 21 21 23 21 17 17
12 11 12 12 11 11 10 11 11 10 10 9 9 9 9 9 9 9 9 9 10 10 11 11 13 13 13 13 13 14 14 15 16 16 17 17 18 18 18 18 18 20 20 21 21 20 20 19 18 19 17 16
11 10 11 10 10 10 10 10 10 10 9 9 9 9 8 8 8 9 9 9 10 10 11 11 11 12 12 13 13 14 14 15 15 16 17 17 18 17 18 17 17 19 19 20 20 20 19 17 16 18 17 14
10 10 9 8 9 9 9 9 9 9 8 8 8 8 8 8 8 8 9 9 10 10 10 10 11 11 11 12 13 14 14 15 15 16 16 17 17 17 18 17 16 17 17 18 19 19 17 15 16 18 17 12
11 11 9 8 9 9 8 8 8 7 7 7 6 8 9 6 5 7 8 8 9 9 9 10 11 11 11 12 14 15 15 16 16 16 17 17 17 16 17 16 16 17 16 17 17 16 15 16 17 17 15 12
12 11 9 9 9 8 8 7 7 6 6 6 6 7 6 4 4 6 7 8 8 9 9 11 12 13 14 15 15 16 15 17 17 15 16 17 16 15 16 16 16 17 16 17 15 15 16 17 18 16 14 12
12 11 10 9 9 8 8 7 6 5 5 4 5 6 4 2 4 4 6 7 8 9 11 12 13 14 14 15 15 15 14 15 15 13 14 15 15 15 16 16 16 17 17 17 15 15 17 18 18 16 14 12
12 11 10 9 9 8 8 7 6 5 4 3 3 4 2 1 3 2 3 6 7 8 8 9 9 10 11 12 13 14 13 13 13 12 13 14 14 15 16 16 17 17 17 17 17 17 18 19 18 16 15 14
12 11 10 10 9 8 8 7 6 5 4 3 2 2 1 1 3 3 2 5 5 5 4 6 6 7 10 11 12 12 12 12 12 12 13 14 14 15 15 15 16 17 17 17 17 17 18 19 18 16 16 15
13 13 12 12 11 10 9 8 6 5 4 3 3 2 1 2 3 3 1 4 4 4 3 5 6 7 9 9 10 10 10 11 11 11 12 14 14 14 14 14 15 16 16 15 15 16 18 19 18 17 17 16
14 13 13 13 13 12 10 9 8 7 6 4 4 3 3 4 3 3 2 2 3 3 3 5 6 5 7 7 8 8 9 10 10 10 11 13 13 13 13 12 13 15 15 13 13 15 17 19 18 17 17 16
14 14 14 15 14 13 12 11 10 9 8 6 5 5 4 4 4 3 3 2 1 2 3 5 5 4 5 6 6 7 7 9 9 9 10 11 12 12 12 11 12 15 14 13 13 15 17 19 18 17 17 16
15 16 16 16 15 14 13 12 12 11 8 8 8 7 6 5 5 4 4 3 1 3 4 4 4 3 4 5 5 6 6 7 8 8 9 11 11 11 12 10 11 13 14 12 12 14 17 18 18 18 17 17
16 17 17 16 16 16 15 14 13 11 9 9 9 9 8 6 6 6 6 5 3 3 3 3 2 2 2 3 4 5 6 6 6 7 9 10 11 11 11 10 10 12 13 11 10 12 15 17 17 17 17 17
17 17 17 17 17 16 15 15 14 11 10 11 11 10 8 7 7 7 7 5 4 4 3 2 2 2 1 1 3 4 5 5 6 7 8 9 10 10 10 9 8 10 11 10 9 11 13 15 15 15 15 16
18 17 17 18 18 16 16 16 13 12 13 13 13 12 9 8 8 7 7 5 4 4 5 4 3 2 2 1 2 3 4 5 5 5 6 7 7 8 7 7 7 8 9 8 8 11 13 14 14 13 13 14
18 17 18 19 18 17 17 16 13 13 14 14 15 13 10 10 8 7 7 5 4 5 5 5 3 3 3 1 1 2 3 4 3 3 5 6 6 6 6 5 6 8 8 8 9 11 13 14 14 12 12 13
20 19 20 20 18 18 19 16 15 15 15 15 16 14 12 11 9 8 8 6 5 5 5 5 4 4 3 1 0 1 2 3 2 2 4 5 5 6 5 5 6 7 8 8 10 12 14 14 12 11 12 11
20 20 21 20 19 19 19 17 16 16 16 17 16 15 14 12 11 10 9 7 6 6 7 5 4 5 3 2 1 1 1 3 2 1 4 4 5 6 5 5 5 6 7 8 10 13 14 13 11 11 11 10
20 20 20 20 20 20 19 17 17 17 18 18 17 16 15 14 12 10 9 8 7 7 8 7 7 6 4 2 2 2 2 4 2 1 3 3 4 5 5 5 5 5 6 7 11 13 13 11 10 11 11 10
21 20 20 20 20 20 19 19 19 18 19 18 17 17 16 15 13 11 11 10 9 9 9 10 10 8 5 4 4 3 3 4 2 1 3 3 2 4 5 4 4 5 6 8 13 13 11 9 10 11 11 10
23 21 20 20 21 21 20 21 20 20 20 20 19 19 19 17 15 14 13 12 12 12 12 12 11 8 6 5 4 4 4 3 2 1 3 3 2 3 4 3 4 5 7 11 14 12 9 9 10 12 11 11
25 23 22 21 20 21 21 22 21 21 22 22 21 21 21 20 18 16 15 14 14 14 13 13 11 9 7 6 5 5 5 3 2 1 2 3 3 3 4 4 3 4 8 12 12 10 9 10 12 13 12 11
26 25 24 23 22 22 23 23 23 23 24 24 24 23 23 22 20 19 18 17 16 15 14 14 12 10 9 8 7 6 7 6 5 3 1 2 2 3 4 4 2 5 9 12 11 9 10 10 10 10 9 9
29 29 27 27 26 26 25 24 24 25 25 26 25 25 26 25 23 22 21 19 19 17 16 15 14 13 11 10 9 9 8 9 7 4 1 1 2 2 3 3 2 6 9 10 9 10 12 10 7 7 7 9
32 32 31 31 30 28 26 26 27 27 28 28 27 27 28 27 26 25 23 22 21 20 19 18 17 16 14 13 12 12 11 10 9 6 4 2 3 2 3 2 3 6 6 6 7 10 11 9 7 7 7 8
34 33 32 31 30 29 27 26 27 28 28 28 28 28 30 30 28 27 26 25 23 23 22 21 20 18 17 16 15 15 15 13 10 8 6 4 4 5 4 2 3 5 5 5 7 7 6 4 5 6 6 0
34 32 30 30 29 27 26 25 25 26 28 28 29 30 31 32 31 30 29 27 26 26 25 24 23 21 20 19 18 18 17 15 13 11 9 7 6 6 5 5 5 6 6 5 3 3 2 2 3 2 4 7
34 31 29 29 27 25 25 25 25 27 29 30 31 32 34 34 33 32 31 30 29 29 27 27 26 25 23 22 21 20 19 17 16 13 12 10 9 8 7 8 8 7 7 7 5 3 2 1 1 2 4 10
35 33 32 31 30 29 28 28 30 32 33 33 34 35 35 34 34 34 33 32 32 31 30 29 28 27 26 25 24 22 20 20 19 17 16 13 11 11 9 9 9 8 8 8 8 7 6 5 5 3 3 4
37 37 36 35 35 35 33 32 33 34 34 33 34 35 34 34 34 35 35 34 34 34 33 32 31 30 28 27 25 24 23 23 24 21 18 16 13 12 12 12 11 10 10 9 10 11 9 9 10 8 5 3
Wind_Direction
108 104 106 111 111 109 107 102 97 94 94 92 88 84 80 76 74 71 69 65 61 58 58 58 54 50 47 45 43 40 38 35 32 30 29 27 25 25 24 23 23 24 23 21 23 25 27 30 32 33 34 40
111 107 112 115 113 110 107 102 97 95 93 91 88 83 80 75 71 65 61 57 53 51 50 51 51 48 43 39 34 32 30 28 25 20 19 17 18 18 18 19 18 20 21 19 20 22 29 32 29 30 36 41
118 116 118 117 115 115 109 104 98 94 93 88 84 79 75 70 65 58 54 51 48 46 44 43 42 40 34 29 24 23 22 20 17 12 11 9 10 12 14 18 19 19 20 19 18 22 30 29 22 25 39 45
129 127 126 123 122 122 116 110 101 95 91 85 81 74 68 63 52 47 45 40 42 39 38 38 33 29 23 20 15 12 13 14 13 8 9 9 8 10 14 18 18 20 22 20 21 25 28 22 19 24 37 44
138 136 139 138 133 131 125 118 107 99 91 86 79 71 73 71 43 37 41 32 32 31 32 33 24 18 14 13 10 7 7 11 14 12 10 13 13 13 16 19 18 22 25 24 26 25 23 21 22 26 33 31
144 146 152 151 144 140 135 127 117 107 95 90 80 82 91 87 37 27 38 33 25 22 24 21 11 11 10 8 9 9 9 11 15 15 12 17 19 16 17 20 20 23 25 26 30 25 20 22 24 30 34 22
149 155 159 156 152 149 144 136 128 119 106 100 93 102 113 70 46 27 27 28 24 20 18 12 6 8 7 4 7 11 11 11 16 18 16 20 22 19 18 20 21 23 22 24 28 24 21 22 23 28 30 18
155 162 163 159 159 157 153 149 146 140 127 120 115 123 133 51 71 67 12 20 27 22 14 10 8 3 0 2 5 8 8 12 19 21 20 23 25 22 21 21 22 21 19 21 23 19 19 20 21 25 24 17
160 162 161 160 160 161 162 162 163 161 158 154 153 158 149 32 70 89 342 6 26 22 8 3 7 355 355 0 2 7 7 14 21 21 23 24 26 25 24 23 21 22 19 19 18 14 16 16 18 21 19 16
166 163 164 165 165 169 172 169 172 178 189 192 190 203 149 110 87 107 310 338 3 18 359 351 9 358 352 359 1 8 8 16 24 23 23 24 28 27 27 26 18 21 22 20 13 8 12 12 13 16 13 12
172 167 170 172 172 176 180 175 178 193 208 217 211 217 180 160 157 160 220 299 351 9 339 346 13 4 351 358 5 12 11 18 28 27 26 26 30 29 30 29 14 18 24 20 10 4 6 8 10 12 9 8
174 171 177 181 178 179 186 183 186 202 215 224 221 226 213 188 184 182 223 256 332 325 319 341 4 6 352 354 5 15 14 20 30 30 27 27 30 30 33 30 13 16 22 17 10 1 1 5 7 7 5 5
176 180 190 192 185 187 191 184 194 210 215 224 229 228 221 212 202 194 226 249 249 281 309 333 349 358 347 346 359 11 16 21 29 30 26 26 29 30 32 30 14 12 19 19 9 357 356 1 4 2 1 1
184 192 200 195 191 200 193 187 205 213 208 220 232 227 220 223 220 206 217 233 232 258 296 316 323 331 331 334 343 8 22 21 31 31 25 24 26 29 31 29 15 8 17 19 5 353 352 356 358 358 358 356
190 197 200 192 196 204 191 197 213 206 202 213 223 229 229 229 225 217 218 224 219 218 228 235 249 262 251 291 333 10 25 24 38 33 23 25 26 28 28 26 14 5 14 16 0 348 350 353 354 355 353 348
193 197 197 193 200 202 196 209 213 201 205 210 219 229 230 229 223 220 228 231 222 213 215 220 223 238 241 255 334 10 27 35 47 33 23 31 30 29 29 23 9 3 10 10 354 347 352 352 351 352 344 342
195 195 196 200 203 203 207 215 209 205 211 214 225 231 226 229 225 220 235 244 235 220 223 227 207 211 239 273 348 11 38 53 59 28 24 32 31 35 35 17 0 2 8 2 349 348 352 351 351 347 338 342
197 196 201 205 204 208 215 215 209 210 213 218 229 233 227 229 227 225 234 242 231 214 220 228 207 205 225 255 298 36 47 74 87 15 23 28 23 34 36 14 3 2 360 353 346 348 349 349 350 343 340 344
201 202 207 209 205 212 218 214 211 212 213 219 228 233 231 226 226 227 230 233 220 202 207 213 215 216 213 225 199 143 73 94 120 355 28 30 11 25 28 13 13 359 346 341 340 345 348 348 349 348 349 343
203 206 209 210 207 214 218 212 210 211 214 219 223 229 231 226 224 225 225 224 213 201 196 194 208 222 212 201 181 168 125 112 151 315 41 47 4 10 15 14 13 346 330 328 336 344 347 349 349 349 348 336
202 205 207 208 207 213 217 211 209 210 214 217 217 223 229 228 224 225 223 217 208 200 194 193 204 215 207 193 177 167 147 142 180 332 41 49 15 358 6 11 347 334 326 325 337 344 345 350 347 341 338 328
203 204 205 207 209 213 216 213 211 212 215 216 215 219 227 229 226 225 222 213 205 200 197 197 205 209 198 191 178 163 159 173 213 12 27 29 34 4 4 2 337 333 322 324 336 344 348 349 337 327 317 310
205 205 205 206 209 212 215 215 213 214 216 217 218 219 225 228 226 224 219 211 204 201 200 200 205 204 194 191 179 166 166 182 230 298 349 15 27 14 10 5 349 317 306 325 342 348 348 336 318 309 297 290
205 205 205 205 207 209 212 214 214 215 218 219 221 220 222 225 226 224 218 210 205 204 203 203 205 202 196 193 183 174 172 180 213 255 315 22 19 16 18 8 329 285 303 329 347 345 333 324 315 310 289 264
205 204 203 203 206 208 211 213 214 216 218 220 222 219 219 224 226 223 218 211 207 206 205 206 206 203 198 195 189 184 183 187 205 222 210 85 50 26 351 350 264 279 312 334 348 337 328 336 341 329 298 253
208 208 207 208 209 211 213 215 216 218 219 220 220 218 220 225 224 222 220 214 209 208 207 207 209 207 201 197 190 186 194 200 203 202 190 153 108 157 263 308 259 275 313 337 342 329 321 336 342 327 311 249
211 212 212 214 215 214 216 218 221 223 224 222 220 219 222 225 223 221 220 216 213 210 209 208 210 210 204 201 193 190 200 204 203 201 190 175 149 164 203 233 247 253 272 303 327 327 305 319 332 331 351 325
214 215 216 218 219 219 220 222 224 225 224 222 219 219 220 223 222 220 220 218 215 214 211 210 211 211 207 203 199 198 204 204 203 204 195 186 175 169 171 177 206 233 250 271 308 337 297 309 318 283 13 5
214 214 214 215 215 218 220 220 219 217 217 215 215 215 217 220 219 218 220 219 217 216 215 212 211 211 210 205 202 203 205 206 205 202 201 198 186 182 177 176 191 220 248 251 229 217 238 293 281 221 354 349
213 212 211 209 208 209 211 213 214 213 212 209 210 213 214 217 217 218 220 219 219 218 217 214 212 211 211 209 205 203 202 204 205 202 203 204 194 188 186 185 188 203 228 239 232 230 229 229 233 249 335 354
213 212 212 211 211 211 212 214 217 217 215 212 212 213 213 215 217 218 220 219 219 220 218 216 214 212 211 210 209 204 199 200 205 207 206 206 201 193 189 190 191 192 199 211 225 230 229 229 232 242 253 239